When you browse on this site, cookies collect data to enhance your experience and personalize the content and advertising you see.
Visit our Privacy Policy to learn more. By continuing to use the site, you agree to this use of cookies and data.
  • In Slovakia
  • List of Countries
  • For 7 days
  • Water Temperature
  • Satellite Maps
  • Weather Map
  • Weather Widgets
  • user-avatar
    Login

    Hourly Weather Bulanovka

    Today, 16 January, Wednesday

    Time Temperature Precipitation Wind Pressure Humidity
    00:00 -13°C° 0.2 mm 7 mps 725 mmHg 93%
    01:00 -13°C° 0.2 mm 7 mps 725 mmHg 93%
    02:00 -12°C° 0.2 mm 7 mps 725 mmHg 93%
    03:00 -12°C° 0.2 mm 7 mps 725 mmHg 93%
    04:00 -11°C° 0 mm 8 mps 725 mmHg 92%
    05:00 -12°C° 0.1 mm 7 mps 725 mmHg 92%
    06:00 -12°C° 0.1 mm 7 mps 725 mmHg 91%
    07:00 -12°C° 0.1 mm 7 mps 725 mmHg 91%
    08:00 -13°C° 0 mm 7 mps 725 mmHg 89%
    09:00 -14°C° 0 mm 6 mps 725 mmHg 86%
    10:00 -14°C° 0 mm 6 mps 725 mmHg 84%
    11:00 -14°C° 0 mm 6 mps 725 mmHg 82%
    12:00 -13°C° 0 mm 7 mps 725 mmHg 81%
    13:00 -12°C° 0 mm 7 mps 725 mmHg 79%
    14:00 -12°C° 0 mm 7 mps 724 mmHg 79%
    15:00 -12°C° 0 mm 7 mps 724 mmHg 79%
    16:00 -12°C° 0 mm 8 mps 723 mmHg 79%
    17:00 -12°C° 0 mm 8 mps 723 mmHg 78%
    18:00 -11°C° 0 mm 9 mps 722 mmHg 76%
    19:00 -12°C° 0 mm 10 mps 722 mmHg 75%
    20:00 -12°C° 0 mm 10 mps 722 mmHg 74%
    21:00 -13°C° 0 mm 10 mps 721 mmHg 74%
    22:00 -13°C° 0 mm 10 mps 721 mmHg 74%
    23:00 -13°C° 0 mm 10 mps 721 mmHg 77%

    Tomorrow, 17 January, Thursday

    Time Temperature Precipitation Wind Pressure Humidity
    00:00 -12°C° 0 mm 9 mps 721 mmHg 80%
    01:00 -14°C° 0 mm 9 mps 721 mmHg 82%
    02:00 -14°C° 0 mm 9 mps 720 mmHg 85%
    03:00 -14°C° 0 mm 9 mps 720 mmHg 88%
    04:00 -14°C° 0 mm 9 mps 720 mmHg 90%
    05:00 -12°C° 0.1 mm 8 mps 720 mmHg 91%
    06:00 -12°C° 0.1 mm 8 mps 720 mmHg 92%
    07:00 -12°C° 0.1 mm 7 mps 721 mmHg 92%
    08:00 -12°C° 0.3 mm 7 mps 721 mmHg 93%
    09:00 -11°C° 0.3 mm 6 mps 722 mmHg 93%
    10:00 -11°C° 0.3 mm 6 mps 722 mmHg 93%
    11:00 -9°C° 0.2 mm 4 mps 722 mmHg 94%
    12:00 -8°C° 0.2 mm 3 mps 723 mmHg 94%
    13:00 -6°C° 0.2 mm 2 mps 723 mmHg 94%
    14:00 -7°C° 0 mm 2 mps 723 mmHg 94%
    15:00 -8°C° 0 mm 2 mps 723 mmHg 95%
    16:00 -9°C° 0 mm 1 mps 723 mmHg 95%
    17:00 -10°C° 0 mm 1 mps 724 mmHg 95%
    18:00 -11°C° 0 mm 1 mps 724 mmHg 95%
    19:00 -12°C° 0 mm 1 mps 724 mmHg 95%
    20:00 -13°C° 0 mm 1 mps 725 mmHg 95%
    21:00 -14°C° 0 mm 1 mps 725 mmHg 94%
    22:00 -14°C° 0 mm 1 mps 725 mmHg 93%
    23:00 -15°C° 0 mm 1 mps 725 mmHg 92%

    Day after tomorrow, 18 January, Friday

    Time Temperature Precipitation Wind Pressure Humidity
    00:00 -15°C° 0 mm 1 mps 725 mmHg 91%
    01:00 -16°C° 0 mm 1 mps 725 mmHg 90%
    02:00 -18°C° 0 mm 2 mps 726 mmHg 89%
    03:00 -18°C° 0 mm 2 mps 726 mmHg 89%
    04:00 -18°C° 0 mm 2 mps 726 mmHg 89%
    05:00 -18°C° 0 mm 2 mps 726 mmHg 89%
    06:00 -19°C° 0 mm 3 mps 726 mmHg 90%
    07:00 -19°C° 0 mm 3 mps 726 mmHg 90%
    08:00 -19°C° 0 mm 3 mps 726 mmHg 89%
    09:00 -19°C° 0 mm 4 mps 726 mmHg 89%
    10:00 -19°C° 0 mm 4 mps 726 mmHg 88%
    11:00 -19°C° 0 mm 5 mps 726 mmHg 87%
    12:00 -18°C° 0 mm 5 mps 725 mmHg 86%
    13:00 -17°C° 0 mm 6 mps 725 mmHg 84%
    14:00 -17°C° 0 mm 6 mps 725 mmHg 85%
    15:00 -17°C° 0 mm 6 mps 725 mmHg 86%
    16:00 -17°C° 0 mm 5 mps 725 mmHg 87%
    17:00 -18°C° 0 mm 5 mps 725 mmHg 89%
    18:00 -18°C° 0 mm 5 mps 725 mmHg 91%
    19:00 -18°C° 0 mm 5 mps 725 mmHg 94%
    20:00 -17°C° 0 mm 5 mps 725 mmHg 94%
    21:00 -17°C° 0 mm 5 mps 726 mmHg 94%
    22:00 -15°C° 0 mm 5 mps 726 mmHg 95%
    23:00 -14°C° 0 mm 5 mps 726 mmHg 95%

    19 January, Saturday

    Time Temperature Precipitation Wind Pressure Humidity
    00:00 -14°C° 0 mm 5 mps 726 mmHg 94%
    01:00 -13°C° 0 mm 5 mps 726 mmHg 94%
    02:00 -13°C° 0 mm 5 mps 725 mmHg 94%
    03:00 -12°C° 0 mm 5 mps 725 mmHg 94%
    04:00 -12°C° 0 mm 5 mps 725 mmHg 94%
    05:00 -12°C° 0 mm 5 mps 724 mmHg 95%
    06:00 -12°C° 0 mm 5 mps 724 mmHg 95%
    07:00 -14°C° 0 mm 6 mps 723 mmHg 95%
    08:00 -14°C° 0 mm 6 mps 723 mmHg 95%
    09:00 -14°C° 0 mm 6 mps 723 mmHg 95%
    10:00 -14°C° 0 mm 6 mps 723 mmHg 95%
    11:00 -12°C° 0 mm 6 mps 723 mmHg 95%
    12:00 -12°C° 0 mm 6 mps 722 mmHg 95%
    13:00 -12°C° 0 mm 7 mps 722 mmHg 95%
    14:00 -11°C° 0 mm 6 mps 722 mmHg 95%
    15:00 -11°C° 0 mm 6 mps 722 mmHg 94%
    16:00 -11°C° 0 mm 6 mps 721 mmHg 94%
    17:00 -10°C° 0.1 mm 6 mps 722 mmHg 94%
    18:00 -10°C° 0.1 mm 5 mps 722 mmHg 94%
    19:00 -8°C° 0.1 mm 4 mps 722 mmHg 94%
    20:00 -8°C° 0 mm 4 mps 722 mmHg 94%
    21:00 -7°C° 0 mm 4 mps 722 mmHg 94%
    22:00 -6°C° 0 mm 3 mps 722 mmHg 94%
    23:00 -7°C° 0 mm 3 mps 722 mmHg 94%

    20 January, Sunday

    Time Temperature Precipitation Wind Pressure Humidity
    00:00 -8°C° 0 mm 3 mps 722 mmHg 94%
    01:00 -10°C° 0 mm 3 mps 722 mmHg 94%
    02:00 -10°C° 0 mm 3 mps 722 mmHg 95%
    03:00 -12°C° 0 mm 3 mps 723 mmHg 95%
    04:00 -12°C° 0 mm 3 mps 723 mmHg 96%
    05:00 -14°C° 0 mm 3 mps 723 mmHg 96%
    06:00 -15°C° 0 mm 3 mps 723 mmHg 95%
    07:00 -16°C° 0 mm 3 mps 723 mmHg 95%
    08:00 -17°C° 0 mm 3 mps 724 mmHg 93%
    09:00 -17°C° 0 mm 3 mps 724 mmHg 92%
    10:00 -18°C° 0 mm 3 mps 724 mmHg 91%
    11:00 -18°C° 0 mm 4 mps 725 mmHg 92%
    12:00 -17°C° 0 mm 4 mps 725 mmHg 94%
    13:00 -18°C° 0 mm 5 mps 725 mmHg 95%
    14:00 -18°C° 0 mm 5 mps 725 mmHg 94%
    15:00 -17°C° 0 mm 5 mps 725 mmHg 94%
    16:00 -17°C° 0 mm 5 mps 726 mmHg 94%
    17:00 -18°C° 0 mm 5 mps 726 mmHg 94%
    18:00 -18°C° 0 mm 5 mps 726 mmHg 94%
    19:00 -18°C° 0 mm 5 mps 727 mmHg 93%
    20:00 -18°C° 0 mm 5 mps 727 mmHg 94%
    21:00 -18°C° 0 mm 5 mps 727 mmHg 95%
    22:00 -19°C° 0 mm 5 mps 727 mmHg 96%
    23:00 -18°C° 0 mm 5 mps 728 mmHg 95%

    21 January, Monday

    Time Temperature Precipitation Wind Pressure Humidity
    00:00 -18°C° 0 mm 5 mps 728 mmHg 94%
    01:00 -18°C° 0 mm 5 mps 728 mmHg 94%
    02:00 -18°C° 0 mm 5 mps 729 mmHg 94%
    03:00 -18°C° 0 mm 5 mps 729 mmHg 94%
    04:00 -18°C° 0 mm 4 mps 729 mmHg 95%
    05:00 -19°C° 0 mm 5 mps 729 mmHg 95%
    06:00 -19°C° 0 mm 5 mps 729 mmHg 95%
    07:00 -19°C° 0 mm 5 mps 730 mmHg 95%
    08:00 -20°C° 0 mm 6 mps 730 mmHg 94%
    09:00 -18°C° 0 mm 6 mps 730 mmHg 94%
    10:00 -19°C° 0 mm 7 mps 731 mmHg 93%
    11:00 -19°C° 0 mm 7 mps 731 mmHg 93%
    12:00 -18°C° 0 mm 6 mps 731 mmHg 92%
    13:00 -18°C° 0 mm 6 mps 731 mmHg 92%
    14:00 -18°C° 0 mm 6 mps 731 mmHg 92%
    15:00 -18°C° 0 mm 6 mps 731 mmHg 92%
    16:00 -18°C° 0 mm 5 mps 731 mmHg 92%
    17:00 -18°C° 0 mm 5 mps 731 mmHg 93%
    18:00 -18°C° 0 mm 5 mps 730 mmHg 93%
    19:00 -18°C° 0 mm 5 mps 730 mmHg 94%
    20:00 -18°C° 0.2 mm 5 mps 730 mmHg 93%
    21:00 -18°C° 0.2 mm 5 mps 730 mmHg 93%
    22:00 -17°C° 0.2 mm 5 mps 729 mmHg 93%
    23:00 -17°C° 0.6 mm 6 mps 729 mmHg 94%
    Show more